Barcroft Research Lab Weather observations

Data are for 10 minute period ending at time listed.
 Day   Time   Solar   Ave.   Ave.  Ave.  Vector  Std.   Max.    Baro.    
  of    of     Rad.   Air    Rel.  Wind   Wind   Dev.   Wind   Press.    
Year   Day            Temp.  Hum.  Speed  Dir.   Dir.   Gust            
2014   (PST)  Kw/m2    F      %     mph   deg.   deg.    mph     mb.    
------------------------------------------------------------------------
 205   17:50       6   53.0    22    9.2   242    -99    13.4   650.30  
 205   18:00       4   52.6    21    9.5   246    -99    15.7   650.30  
 205   18:10       2   52.2    21    8.7   242    -99    14.1   650.40  
 205   18:20       0   52.0    21    8.7   256    -99    14.7   650.40  
 205   18:30       0   51.7    21    6.6   259    -99    14.0   650.40  
 205   18:40       0   51.4    22    6.9   267    -99    11.5   650.40  
 205   18:50       0   51.2    22    6.4   270    -99    10.4   650.40  
 205   19:00       0   50.6    23    8.3   252    -99    12.3   650.40  
 205   19:10       0   50.5    23    6.9   252    -99    12.3   650.80  
 205   19:20       0   50.1    24    6.7   257    -99     9.2   650.80  
 205   19:30       0   50.0    24    7.2   262    -99    10.8   650.80  
 205   19:40       0   50.2    23    6.4   259    -99    10.9   650.80  
 205   19:50       0   50.0    23    6.0   272    -99    10.7   650.80  
 205   20:00       0   49.8    23    5.5   266    -99     9.4   650.80  
 205   20:10       0   49.6    23    6.7   268    -99     9.3   650.80  
 205   20:20       0   49.4    23    6.4   272    -99     9.3   650.80  
 205   20:30       0   48.8    25    6.0   277    -99     8.2   650.80  
 205   20:40       0   49.3    26    6.1   235    -99    11.0   650.80  
 205   20:50       0   49.2    28    3.9   208    -99     9.3   650.80  
 205   21:00       0   49.1    28    3.7   197    -99     8.3   650.80  
 205   21:10       0   48.9    28    5.0   189    -99     9.2   650.60  
 205   21:20       0   48.3    28    4.6   194    -99     9.3   650.60  
 205   21:30       0   48.2    28    5.0   191    -99    10.1   650.60  
 205   21:40       0   47.5    29    4.7   192    -99     8.2   650.60  
 205   21:50       0   47.4    28    5.0   193    -99    14.6   650.60  
 205   22:00       0   47.2    28    4.9   197    -99    12.3   650.60  
 205   22:10       0   47.0    27    5.3   199    -99    13.0   650.70  
 205   22:20       0   47.3    24    5.3   202    -99    13.9   650.70  
 205   22:30       0   47.5    23    5.1   205    -99    11.2   650.70  
 205   22:40       0   47.6    22    5.3   202    -99    14.6   650.70  
 205   22:50       0   47.5    22    5.1   202    -99    13.7   650.70  
 205   23:00       0   47.1    22    5.4   206    -99    14.8   650.70  
 205   23:10       0   47.2    22    4.6   209    -99     9.6   650.50  
 205   23:20       0   47.1    22    4.8   212    -99    10.3   650.50  
 205   23:30       0   46.9    22    4.8   217    -99     9.1   650.50  
 205   23:40       0   46.7    23    6.4   224    -99    12.2   650.50  
 205   23:50       0   46.1    24    6.8   236    -99     9.8   650.50  
 206    0:00       0   45.8    24    6.7   238    -99     9.1   650.50  
 206    0:10       0   45.8    25    6.6   240    -99     8.2   650.10  
 206    0:20       0   45.7    25    6.1   241    -99     8.3   650.10  
 206    0:30       0   45.8    25    5.9   244    -99     7.8   650.10  
 206    0:40       0   45.5    25    6.1   242    -99     9.3   650.10  
 206    0:50       0   46.0    24    8.1   237    -99    13.2   650.10  
 206    1:00       0   46.4    23    7.9   241    -99    12.1   650.10  
 206    1:10       0   46.6    23    8.7   239    -99    12.9   649.80  
 206    1:20       0   46.5    23    8.7   241    -99    12.1   649.80  
 206    1:30       0   46.0    24    7.6   246    -99    10.0   649.80  
 206    1:40       0   45.5    25    6.6   244    -99     8.8   649.80  
 206    1:50       0   45.1    25    6.1   235    -99     9.6   649.80  
 206    2:00       0   45.0    25    6.5   237    -99     8.5   649.80  
 206    2:10       0   45.0    25    7.2   238    -99     9.9   649.50  
 206    2:20       0   45.5    24    8.3   240    -99    11.0   649.50  
 206    2:30       0   46.0    23    8.3   238    -99    12.1   649.50  
 206    2:40       0   46.2    23    8.9   240    -99    12.1   649.50  
 206    2:50       0   45.8    24    8.6   240    -99    13.3   649.50  
 206    3:00       0   46.1    23    8.8   234    -99    11.9   649.50  
 206    3:10       0   45.5    24    7.5   234    -99     9.9   649.50  
 206    3:20       0   45.0    25    7.5   240    -99    10.2   649.50  
 206    3:30       1   44.8    25    6.6   243    -99     9.3   649.50  
 206    3:40       4   44.3    25    6.6   242    -99     9.1   649.50  
 206    3:50      11   44.8    24    7.5   243    -99     9.3   649.50  
 206    4:00      33   45.8    24    7.4   242    -99     9.3   649.50  
 206    4:10      69   46.7    23    7.1   242    -99    10.2   649.60  
 206    4:20     115   47.9    22    7.0   232    -99    11.8   649.60  
 206    4:30     167   48.7    21    6.6   221    -99    11.2   649.60  
 206    4:40     220   49.5    20    5.5   219    -99    11.3   649.60  
 206    4:50     246   49.9    20    5.3   214    -99    11.2   649.60  
 206    5:00     240   49.9    20    5.0   210    -99    12.9   649.60  
 206    5:10     290   50.0    20    5.3   202    -99    10.7   649.70  
 206    5:20     312   50.2    20    7.2   195    -99    13.7   649.70  
 206    5:30     251   49.7    20    7.3   188    -99    12.0   649.70  
 206    5:40     225   49.1    20    6.9   194    -99    14.0   649.70  
 206    5:50     339   49.9    20    6.2   206    -99    13.3   649.70  
 206    6:00     369   50.6    19    6.6   207    -99    14.3   649.70  
 206    6:10     460   51.1    18    7.7   214    -99    15.0   649.90  
 206    6:20     464   51.9    17    7.2   205    -99    16.2   649.90  
 206    6:30     485   52.0    16    7.8   202    -99    15.2   649.90  
 206    6:40     491   52.5    15    7.9   214    -99    15.9   649.90  
 206    6:50     433   52.6    14    6.8   218    -99    14.1   649.90  
 206    7:00     548   52.4    15    6.4   213    -99    14.6   649.90  
 206    7:10     595   52.5    14    8.3   211    -99    16.0   650.20  
 206    7:20     690   53.4    14    7.7   216    -99    17.3   650.20  
 206    7:30     679   53.4    14    9.0   199    -99    20.0   650.20  
 206    7:40     734   53.3    14    9.2   196    -99    19.2   650.20  
 206    7:50     719   53.9    14    8.6   199    -99    17.8   650.20  
 206    8:00     788   54.1    14    8.0   213    -99    15.9   650.20  
 206    8:10     834   54.3    15    8.6   220    -99    15.1   650.50  
 206    8:20     854   54.2    16    8.9   219    -99    17.5   650.50  
 206    8:30     878   54.6    16    9.4   220    -99    17.5   650.50  
 206    8:40     895   54.4    16   10.6   231    -99    22.5   650.50  
 206    8:50     912   54.4    16   12.5   237    -99    20.8   650.50  
 206    9:00     927   54.9    16   11.9   233    -99    21.9   650.50  
 206    9:10     948   55.0    16   11.3   232    -99    24.0   650.50  
 206    9:20     973   54.9    16   13.6   239    -99    21.9   650.50  
 206    9:30     976   55.0    16   14.9   238    -99    24.5   650.50  
 206    9:40    1039   55.6    16   13.1   235    -99    21.8   650.50  
 206    9:50    1016   56.3    16    9.8   218    -99    21.5   650.50  
 206   10:00     974   56.2    16   13.3   220    -99    24.0   650.50  
 206   10:10     889   55.2    16   12.8   251    -99    22.7   650.80  
 206   10:20     957   55.7    17   11.3   221    -99    21.0   650.80  
 206   10:30     891   56.1    16    9.2   211    -99    19.5   650.80  
 206   10:40     985   56.2    17   10.9   231    -99    20.6   650.80  
 206   10:50    1032   56.4    17   11.7   234    -99    20.8   650.80  
 206   11:00    1072   57.0    17   10.9   209    -99    19.8   650.80  
 206   11:10    1049   57.2    17    8.6   228    -99    15.1   651.10  
 206   11:20    1016   57.1    17   10.6   220    -99    21.6   651.10  
 206   11:30     873   56.6    18    7.9   224    -99    18.0   651.10  
 206   11:40     955   56.7    18    9.8   230    -99    19.1   651.10  
 206   11:50    1019   56.9    17   10.9   240    -99    20.5   651.10  
 206   12:00     967   57.7    18   11.0   230    -99    19.6   651.10  
 206   12:10     850   57.7    17   15.3   236    -99    24.5   651.10  
 206   12:20     783   56.8    17   10.3   240    -99    19.5   651.10  
 206   12:30     901   58.4    17   11.6   214    -99    26.2   651.10  
 206   12:40     887   57.7    17   14.7   237    -99    30.9   651.10  
 206   12:50     864   57.3    17   17.2   241    -99    27.4   651.10  
 206   13:00     874   57.3    18   16.6   245    -99    31.0   651.10  
 206   13:10     865   57.8    17   16.6   242    -99    27.5   651.00  
 206   13:20     799   57.6    16   13.2   254    -99    23.8   651.00  
 206   13:30     838   58.0    16   15.4   240    -99    26.9   651.00  
 206   13:40     761   57.3    16   14.1   253    -99    29.5   651.00  
 206   13:50     655   56.6    17   12.5   253    -99    23.7   651.00  
 206   14:00     654   56.5    17   13.1   247    -99    25.9   651.00  
 206   14:10     785   57.2    18   13.0   247    -99    24.9   650.80  
 206   14:20     729   56.7    18   15.0   262    -99    26.1   650.80  
 206   14:30     721   56.5    18   14.0   265    -99    28.2   650.80  
 206   14:40     672   56.6    18   15.9   256    -99    24.9   650.80  
 206   14:50     580   56.4    18   12.1   265    -99    23.9   650.80  
 206   15:00     597   56.1    18   13.7   255    -99    28.4   650.80  
 206   15:10     554   55.8    18   13.4   265    -99    27.2   650.80  
 206   15:20     505   55.6    19   15.5   258    -99    26.6   650.80  
 206   15:30     461   55.0    18   14.3   257    -99    28.4   650.80  
 206   15:40     447   55.3    18   11.6   270    -99    24.1   650.80  
 206   15:50     355   55.1    18   13.3   262    -99    22.4   650.80  
 206   16:00     370   54.3    18   14.8   252    -99    22.7   650.80  
 206   16:10     297   53.6    19   14.5   263    -99    29.6   650.60  
 206   16:20     304   54.2    19    9.4   267    -99    18.4   650.60  
 206   16:30     272   54.1    19    9.6   247    -99    20.6   650.60  
 206   16:40     158   53.0    19   12.1   260    -99    21.7   650.60  
 206   16:50      30   52.3    19    9.7   246    -99    16.6   650.60  
 206   17:00      23   51.7    19   12.1   254    -99    21.0   650.60  
 206   17:10      29   51.4    19   11.9   258    -99    21.3   650.80  
 206   17:20      22   51.1    19   11.0   267    -99    25.3   650.80  
 206   17:30      20   50.7    19   10.6   263    -99    23.6   650.80  
 206   17:40      17   50.5    19    9.8   270    -99    18.2   650.80  

Return to Barcroft Research Lab graphs page.


Western Regional Climate Center,wrcc@dri.edu